Stations météo

réclame
Mon MeteoGroup
St-Auban-Sur-Durance, France (7588): Température de l'air & dewpoint: 10.07.2019 04:00:00 - 16.07.2019 04:00:00 (CEST)St-Auban-Sur-Durance, France (7588): Température de l'air 5cm: 10.07.2019 04:00:00 - 16.07.2019 04:00:00 (CEST)St-Auban-Sur-Durance, France (7588): Température de l'air -20cm: 10.07.2019 04:00:00 - 16.07.2019 04:00:00 (CEST)St-Auban-Sur-Durance, France (7588): Vitesse du vent & gusts: 10.07.2019 04:00:00 - 16.07.2019 04:00:00 (CEST)St-Auban-Sur-Durance, France (7588): Direction du vent: 10.07.2019 04:00:00 - 16.07.2019 04:00:00 (CEST)St-Auban-Sur-Durance, France (7588): reduced air pressure: 10.07.2019 04:00:00 - 16.07.2019 04:00:00 (CEST)St-Auban-Sur-Durance, France (7588): visibility: 10.07.2019 04:00:00 - 16.07.2019 04:00:00 (CEST)St-Auban-Sur-Durance, France (7588): Ensoleillement: 10.07.2019 04:00:00 - 16.07.2019 04:00:00 (CEST)St-Auban-Sur-Durance, France (7588): Quantités de précipitations: 10.07.2019 04:00:00 - 16.07.2019 04:00:00 (CEST)
Date & Time tt [°C] td [°C] tt 5cm [°C] tt -20cm [°C] ff [km/h] ff [knt] fx [km/h] fx [knt] dd ppp [hPa] vv [km] sd [min] rr [mm]
16.07.2019 04:00:00 16,6 10,4 15,5 26,1 9 5 16 9 E 1014,0 20 0 0,0
16.07.2019 03:00:00 16,3 9,5 16,4 26,4 10 6 19 11 ESE 1014,2 20 0 0,0
16.07.2019 02:00:00 17,4 9,6 16,3 26,6 6 4 18 10 E 1013,4 20 0 0,0
16.07.2019 01:00:00 18,2 9,0 17,9 26,7 4 2 35 19 ESE 1013,3 20 0 0,0
16.07.2019 00:00:00 20,5 10,6 20,5 26,9 18 10 30 16 N 1012,3 20 0 0,0
15.07.2019 23:00:00 21,2 10,7 21,2 27,0 13 7 24 13 NNE 1011,5 20 0 0,0
15.07.2019 22:00:00 22,6 10,1 22,6 27,1 16 8 40 22 N 1010,3 20 0 0,0
15.07.2019 21:00:00 23,2 9,9 23,8 27,1 25 14 37 20 NNW 1009,2 20 21 0,0
15.07.2019 20:00:00 24,8 10,3 26,4 27,1 20 11 34 18 NNW 1008,4 20 33 0,0
15.07.2019 19:00:00 24,8 9,9 27,0 26,9 21 11 40 21 NNW 1007,7 20 42 0,0
15.07.2019 18:00:00 25,9 9,7 31,0 26,9 24 13 40 21 NNW 1007,0 20 60 0,0
15.07.2019 17:00:00 24,4 8,8 27,5 26,7 23 12 44 24 N 1007,4 20 4 0,0
15.07.2019 16:00:00 24,0 8,8 26,9 26,6 27 15 48 26 NNW 1007,1 20 0 0,0
15.07.2019 15:00:00 24,3 8,7 28,5 26,3 31 17 54 29 NNW 1005,9 20 15 0,0
15.07.2019 14:00:00 24,2 8,2 29,4 26,1 28 15 55 30 NNW 1005,4 20 39 0,0
15.07.2019 13:00:00 23,4 9,4 29,9 25,9 36 20 57 31 NNW 1005,2 20 60 0,0
15.07.2019 12:00:00 23,3 8,9 26,3 25,9 30 16 51 28 N 1005,2 20 44 0,0
15.07.2019 11:00:00 21,9 8,7 27,2 25,9 35 19 53 28 N 1005,7 20 60 0,0
15.07.2019 10:00:00 21,3 8,9 23,4 26,1 31 17 54 29 N 1005,9 20 51 0,0
15.07.2019 09:00:00 20,3 8,3 21,4 26,3 29 15 50 27 N 1006,2 20 48 0,0
15.07.2019 08:00:00 19,2 9,1 20,0 26,5 18 10 35 19 N 1006,3 20 60 0,0
15.07.2019 07:00:00 18,7 9,2 18,8 26,6 13 7 25 14 NNE 1006,3 20 15 0,0
15.07.2019 06:00:00 18,6 9,6 18,6 26,9 12 7 30 16 N 1006,3 20 0 0,0
15.07.2019 05:00:00 19,1 10,4 19,0 27,1 15 8 25 13 NNE 1006,3 20 0 0,0
15.07.2019 04:00:00 19,5 10,5 19,8 27,3 11 6 19 10 NNE 1006,7 20 0 0,0
15.07.2019 03:00:00 18,7 14,8 19,6 27,5 4 2 20 11 ENE 1007,3 20 0 0,0
15.07.2019 02:00:00 19,0 15,7 19,6 27,6 6 3 22 12 E 1007,5 20 0 0,0
15.07.2019 01:00:00 18,9 16,1 19,8 27,8 14 8 30 16 ESE 1007,8 20 0 0,0
15.07.2019 00:00:00 19,9 16,1 21,1 27,9 17 9 29 16 E 1008,0 20 0 0,0
14.07.2019 23:00:00 20,2 16,0 21,3 28,0 15 8 37 20 ESE 1008,1 20 0 0,0
14.07.2019 22:00:00 21,1 15,9 22,2 28,1 14 7 33 18 E 1007,6 20 0 0,0
14.07.2019 21:00:00 25,4 15,1 26,3 28,1 16 9 41 22 SSE 1005,8 20 6 0,0
14.07.2019 20:00:00 25,8 16,4 27,3 28,1 12 7 43 23 SSE 1005,4 20 0 0,0
14.07.2019 19:00:00 26,1 16,4 27,8 28,0 19 11 41 22 S 1005,3 20 3 0,0
14.07.2019 18:00:00 28,4 14,6 30,7 27,7 26 14 41 22 SSW 1004,9 20 5 0,0
14.07.2019 17:00:00 30,5 13,3 32,3 27,4 16 9 29 16 SW 1004,8 20 17 0,0
14.07.2019 16:00:00 30,2 13,9 36,1 26,9 20 11 32 17 SW 1005,3 20 60 0,0
14.07.2019 15:00:00 30,5 13,7 38,5 26,5 20 11 37 20 SSW 1005,8 20 60 0,0
14.07.2019 14:00:00 29,7 12,2 37,8 26,1 10 5 28 15 SSW 1006,3 20 60 0,0
14.07.2019 13:00:00 29,5 11,5 36,9 25,8 6 3 20 11 SW 1007,0 20 60 0,0
14.07.2019 12:00:00 27,1 11,2 34,3 25,7 10 5 23 12 NNE 1008,3 20 60 0,0
14.07.2019 11:00:00 24,7 11,3 29,0 25,7 12 7 29 16 NE 1009,4 20 60 0,0
14.07.2019 10:00:00 22,4 10,5 25,3 25,8 17 9 36 19 NE 1010,1 20 60 0,0
14.07.2019 09:00:00 20,6 10,1 23,0 26,0 18 10 38 21 NE 1010,3 20 60 0,0
14.07.2019 08:00:00 19,1 9,8 18,8 26,3 16 9 32 18 NE 1010,5 20 60 0,0
14.07.2019 07:00:00 17,5 9,4 17,8 26,5 14 8 33 18 ENE 1010,9 20 18 0,0
14.07.2019 06:00:00 17,8 9,2 17,9 26,7 16 8 30 16 ENE 1010,9 20 0 0,0
14.07.2019 05:00:00 18,3 9,4 18,6 26,9 15 8 29 16 ENE 1011,2 20 0 0,0
14.07.2019 04:00:00 19,0 9,2 19,5 27,2 13 7 34 19 NE 1011,2 20 0 0,0
14.07.2019 03:00:00 20,0 9,3 19,9 27,4 14 7 29 16 NNE 1011,3 20 0 0,0
14.07.2019 02:00:00 20,8 9,1 21,1 27,6 10 6 31 17 NE 1011,0 20 0 0,0
14.07.2019 01:00:00 21,7 9,2 21,6 27,8 18 10 44 24 NNE 1010,9 20 0 0,0
14.07.2019 00:00:00 22,4 9,2 22,7 28,0 18 10 36 20 NNE 1010,4 20 0 0,0
13.07.2019 23:00:00 23,2 9,2 23,3 28,1 15 8 28 15 NNE 1010,3 20 0 0,0
13.07.2019 22:00:00 24,2 9,0 24,3 28,2 15 8 39 21 N 1009,6 20 0 0,0
13.07.2019 21:00:00 25,4 9,2 25,8 28,2 16 9 44 24 N 1008,5 20 29 0,0
13.07.2019 20:00:00 27,3 9,2 30,6 28,1 26 14 41 22 N 1007,8 20 60 0,0
13.07.2019 19:00:00 28,9 8,6 34,7 27,9 24 13 41 22 N 1007,8 20 60 0,0
13.07.2019 18:00:00 29,7 7,6 36,5 27,6 29 16 43 23 N 1007,6 20 60 0,0
13.07.2019 17:00:00 30,1 6,7 37,4 27,3 29 16 47 25 NNW 1007,6 20 60 0,0
13.07.2019 16:00:00 30,4 6,3 37,4 26,9 26 14 50 27 N 1007,8 20 60 0,0
13.07.2019 15:00:00 29,7 6,3 36,6 26,5 35 19 53 29 N 1007,8 20 60 0,0
13.07.2019 14:00:00 29,2 7,1 35,4 26,3 31 17 59 32 N 1008,7 20 60 0,0
13.07.2019 13:00:00 28,0 7,8 33,9 26,0 33 18 58 31 N 1009,2 20 60 0,0
13.07.2019 12:00:00 26,8 8,7 32,5 25,9 40 22 63 34 NNW 1009,7 20 60 0,0
13.07.2019 11:00:00 25,9 9,3 30,2 26,0 38 21 55 30 NNW 1010,1 20 60 0,0
13.07.2019 10:00:00 25,0 9,3 28,9 26,1 32 17 57 31 N 1010,4 20 60 0,0
13.07.2019 09:00:00 24,1 10,0 26,3 26,3 34 19 53 29 N 1010,7 20 60 0,0
13.07.2019 08:00:00 23,0 10,1 22,8 26,5 34 18 46 25 N 1010,9 20 60 0,0
13.07.2019 07:00:00 22,4 9,5 21,4 26,7 24 13 38 20 N 1011,0 20 19 0,0
13.07.2019 06:00:00 21,8 9,0 21,0 26,9 14 7 21 12 N 1011,0 20 0 0,0
13.07.2019 05:00:00 22,4 9,9 21,1 27,1 16 9 32 18 N 1010,8 20 0 0,0
13.07.2019 04:00:00 22,8 10,2 22,3 27,3 20 11 37 20 N 1011,0 20 0 0,0
13.07.2019 03:00:00 23,4 10,8 23,5 27,5 32 17 45 24 N 1010,6 20 0 0,0
13.07.2019 02:00:00 24,5 10,4 23,7 27,8 20 11 37 20 N 1011,2 20 0 0,0
13.07.2019 01:00:00 24,6 10,5 24,2 27,9 16 9 30 16 N 1011,7 20 0 0,0
13.07.2019 00:00:00 25,7 10,3 25,2 28,1 17 9 36 19 NNW 1011,5 20 0 0,0
12.07.2019 23:00:00 25,8 10,8 25,1 28,2 16 9 32 18 NW 1011,4 20 0 0,0
12.07.2019 22:00:00 27,0 11,5 27,0 28,2 19 11 39 21 NNW 1010,7 20 0 0,0
12.07.2019 21:00:00 27,9 10,6 28,2 28,2 20 11 39 21 NNW 1010,3 20 27 0,0
12.07.2019 20:00:00 29,9 10,4 33,7 28,1 15 8 36 20 NNW 1009,8 20 60 0,0
12.07.2019 19:00:00 30,9 10,8 36,3 27,8 18 10 41 22 NNW 1009,0 20 60 0,0
12.07.2019 18:00:00 31,6 10,9 37,1 27,4 25 14 40 22 WNW 1008,6 20 60 0,0
12.07.2019 17:00:00 32,2 10,3 38,6 26,9 17 9 34 18 NW 1008,6 20 60 0,0
12.07.2019 16:00:00 31,9 10,6 38,4 26,5 15 8 29 16 NNW 1009,2 20 58 0,0
12.07.2019 15:00:00 32,2 10,3 39,1 26,0 12 7 32 17 N 1009,5 20 60 0,0
12.07.2019 14:00:00 30,8 10,2 38,9 25,6 13 7 35 19 NNW 1010,1 20 60 0,0
12.07.2019 13:00:00 29,6 10,7 37,3 25,4 20 11 36 19 N 1010,6 20 60 0,0
12.07.2019 12:00:00 28,1 10,8 34,5 25,2 14 7 33 18 N 1011,5 20 60 0,0
12.07.2019 11:00:00 26,5 11,0 30,0 25,2 18 10 36 19 N 1012,1 20 53 0,0
12.07.2019 10:00:00 24,7 9,8 30,1 25,3 18 10 26 14 N 1012,5 20 60 0,0
12.07.2019 09:00:00 23,5 10,5 25,8 25,4 8 4 16 8 NE 1012,8 20 60 0,0
12.07.2019 08:00:00 21,3 10,5 21,5 25,6 5 3 16 9 ENE 1013,0 20 60 0,0
12.07.2019 07:00:00 20,2 10,6 20,4 25,8 8 4 24 13 NE 1012,9 18 24 0,0
12.07.2019 06:00:00 20,8 9,4 21,4 25,9 18 10 26 14 N 1012,2 20 0 0,0
12.07.2019 05:00:00 21,8 9,3 21,3 26,1 9 5 18 10 NNE 1011,8 20 0 0,0
12.07.2019 04:00:00 21,8 9,0 21,9 26,3 5 3 16 9 NE 1012,0 20 0 0,0
12.07.2019 03:00:00 22,2 9,0 22,1 26,4 3 1 20 11 W 1012,0 20 0 0,0
12.07.2019 02:00:00 23,5 8,7 23,5 26,6 11 6 23 12 NNE 1011,9 20 0 0,0
12.07.2019 01:00:00 23,9 9,1 23,7 26,7 14 7 23 12 N 1012,0 20 0 0,0
12.07.2019 00:00:00 24,1 10,0 23,8 26,8 12 7 22 12 N 1011,9 20 0 0,0
11.07.2019 23:00:00 24,9 9,2 24,5 26,9 8 4 24 13 N 1011,7 20 0 0,0
11.07.2019 22:00:00 26,1 9,9 26,4 27,0 22 12 32 17 N 1010,8 20 0 0,0
11.07.2019 21:00:00 27,1 9,4 27,5 27,0 10 5 32 17 N 1010,2 20 0 0,0
11.07.2019 20:00:00 27,2 12,4 28,5 26,9 11 6 31 17 WNW 1010,0 20 15 0,0
11.07.2019 19:00:00 28,7 15,2 31,3 26,7 15 8 29 16 WNW 1009,5 20 22 0,0
11.07.2019 18:00:00 29,1 14,5 31,3 26,5 19 10 28 15 SW 1009,3 20 4 0,0
11.07.2019 17:00:00 30,4 14,5 33,1 26,1 12 6 19 10 S 1009,5 20 6 0,0
11.07.2019 16:00:00 30,0 12,9 35,2 25,7 10 5 23 13 S 1010,0 20 37 0,0
11.07.2019 15:00:00 30,0 13,7 35,0 25,3 14 8 38 20 SSW 1010,2 20 43 0,0
11.07.2019 14:00:00 29,7 14,3 35,8 25,0 14 8 24 13 SW 1010,8 20 56 0,0
11.07.2019 13:00:00 28,5 14,7 33,1 24,7 10 6 22 12 SSW 1011,2 20 46 0,0
11.07.2019 12:00:00 27,1 14,5 32,3 24,6 6 4 11 6 SSW 1011,7 20 41 0,0
11.07.2019 11:00:00 25,9 14,7 31,3 24,6 6 3 17 9 NNE 1012,4 20 60 0,0
11.07.2019 10:00:00 23,3 13,7 27,9 24,6 9 5 22 12 NE 1013,3 20 60 0,0
11.07.2019 09:00:00 21,0 13,4 22,2 24,8 11 6 22 12 NE 1013,7 20 58 0,0
11.07.2019 08:00:00 18,2 13,5 18,0 25,0 6 3 11 6 NE 1014,4 20 60 0,0
11.07.2019 07:00:00 16,4 13,5 16,0 25,2 6 3 11 6 NNE 1014,6 20 11 0,0
11.07.2019 06:00:00 15,4 13,1 15,3 25,4 7 4 11 6 NE 1014,4 20 0 0,0
11.07.2019 05:00:00 15,8 12,9 15,8 25,6 4 2 8 4 E 1014,0 20 0 0,0
11.07.2019 04:00:00 16,5 13,2 16,2 25,8 4 2 9 5 ENE 1013,9 20 0 0,0
11.07.2019 03:00:00 17,6 12,9 17,3 26,0 3 1 10 5 ENE 1013,7 20 0 0,0
11.07.2019 02:00:00 18,3 12,9 17,8 26,2 5 3 10 6 ESE 1013,6 20 0 0,0
11.07.2019 01:00:00 19,5 13,0 18,9 26,4 3 2 11 6 NE 1013,2 20 0 0,0
11.07.2019 00:00:00 20,5 12,7 19,6 26,5 5 3 10 6 N 1012,9 20 0 0,0
10.07.2019 23:00:00 22,9 12,2 22,0 26,6 4 2 18 10 NE 1012,2 20 0 0,0
10.07.2019 22:00:00 24,8 12,1 24,6 26,6 13 7 23 12 N 1011,1 20 0 0,0
10.07.2019 21:00:00 26,7 12,0 26,9 26,6 14 7 26 14 N 1009,9 20 28 0,0
10.07.2019 20:00:00 29,8 13,1 31,3 26,4 10 5 22 12 NW 1008,7 20 41 0,0
10.07.2019 19:00:00 30,5 14,2 35,9 26,1 15 8 28 15 SW 1008,1 20 60 0,0
10.07.2019 18:00:00 30,1 13,8 32,2 25,7 13 7 25 13 SSW 1008,0 20 31 0,0
10.07.2019 17:00:00 31,5 14,2 38,0 25,2 15 8 24 13 SSW 1007,7 20 60 0,0
10.07.2019 16:00:00 30,5 14,2 38,5 24,8 7 4 21 12 E 1007,9 20 60 0,0
10.07.2019 15:00:00 30,4 14,1 39,5 24,3 9 5 23 12 NE 1008,0 20 60 0,0
10.07.2019 14:00:00 29,1 12,5 36,4 23,9 11 6 39 21 N 1008,5 20 60 0,0
10.07.2019 13:00:00 28,0 12,8 34,4 23,7 23 12 41 22 N 1008,8 20 60 0,0
10.07.2019 12:00:00 26,3 13,4 31,1 23,6 23 12 40 21 N 1009,2 20 60 0,0
10.07.2019 11:00:00 24,7 13,9 28,7 23,5 26 14 44 24 NNE 1009,4 20 60 0,0
10.07.2019 10:00:00 23,2 13,1 25,6 23,6 21 11 46 25 NNE 1009,4 20 60 0,0
10.07.2019 09:00:00 21,3 14,0 23,1 23,8 17 9 38 20 NNE 1009,4 20 60 0,0
10.07.2019 08:00:00 19,6 14,4 19,1 23,9 11 6 34 18 ENE 1009,3 20 60 0,0
10.07.2019 07:00:00 17,9 15,0 18,0 24,1 11 6 28 15 NE 1009,8 20 21 0,0
10.07.2019 06:00:00 17,7 15,0 18,0 24,3 14 8 24 13 NNE 1009,9 20 0 0,0
10.07.2019 05:00:00 17,4 15,4 18,0 24,5 6 4 22 12 ENE 1009,8 20 0 0,0
10.07.2019 04:00:00 18,1 15,7 18,3 24,7 12 7 24 13 NE 1010,1 20 0 0,0

tt = Température de l'air
td = dewpoint
tt 5cm = Température de l'air 5cm
tt -20cm = Température de l'air -20cm
ff = Vitesse du vent
fx = gusts
dd = Direction du vent
ppp = reduced air pressure
vv = visibility
sd = Ensoleillement
rr = Quantités de précipitations

stations d'obs. à proximité